Wind_Speed
94 92 89 84 81 79 76 73 74 75 75 76 79 79 78 82 83 81 80 77 74 71 69 67 65 65 67 66 63 62 61 60 59 58 57 55 54 53 52 52 51 50 48 44 44 46 46 45 44 44 43 42 43 45 45 44 43 41 39 39 38 37 37 37 37 38 41 43 42 40 40 41 41 41 39 38 39 40 41 42 42 42 42 43 44 45
96 93 89 85 83 82 79 77 78 77 76 77 79 79 78 79 82 82 80 78 76 72 70 70 67 66 67 68 65 64 63 63 62 61 60 58 57 55 54 54 53 53 50 46 46 48 49 48 47 46 45 45 45 45 46 45 42 41 42 42 41 41 41 41 40 39 40 42 44 44 43 44 45 44 42 41 41 41 42 43 43 43 44 45 45 46
95 91 88 87 86 84 81 81 81 79 78 78 79 79 78 78 79 82 82 79 76 73 71 71 69 67 69 69 68 66 65 66 66 64 62 60 58 58 58 57 55 54 52 50 50 50 50 50 49 48 48 48 46 46 48 48 45 43 43 43 43 43 45 45 44 42 42 42 44 46 46 48 48 46 45 45 43 43 44 45 44 45 46 46 47 48
93 89 88 90 89 86 84 83 83 80 78 78 78 78 78 77 77 81 83 82 78 74 72 72 70 68 69 70 69 67 66 68 68 66 65 62 60 59 59 58 56 56 55 53 53 53 52 51 51 51 51 50 49 48 50 51 49 47 46 45 45 45 46 47 47 46 45 45 46 48 50 51 50 49 49 48 47 46 48 47 46 48 50 50 50 49
94 91 91 92 91 89 87 85 84 81 79 78 78 78 77 77 78 80 82 83 81 76 72 72 70 68 69 71 70 69 67 68 68 67 66 65 63 61 59 57 57 57 57 56 56 56 55 55 54 54 54 53 52 51 51 52 52 51 50 49 49 49 49 50 50 50 50 50 50 51 52 53 53 52 52 51 49 49 51 51 50 52 54 55 54 53
97 95 95 95 93 90 88 86 84 83 81 79 78 77 77 77 79 81 80 81 83 80 75 73 70 67 69 71 71 72 70 67 69 69 67 67 66 64 61 60 60 59 59 58 58 59 58 58 57 57 57 56 56 55 53 52 53 54 53 52 52 54 54 55 55 55 54 53 53 53 54 55 55 55 54 53 52 51 53 54 54 56 58 58 58 57
100 98 97 97 95 92 89 87 85 85 84 81 78 77 77 77 80 81 80 80 82 82 78 76 72 67 68 70 71 73 71 67 68 69 68 68 68 66 65 64 64 62 61 60 58 59 60 60 60 60 60 59 58 57 55 53 55 56 56 55 55 55 56 58 58 57 56 55 55 56 56 57 56 56 56 55 55 54 55 56 57 59 60 61 62 61
102 99 98 97 96 94 92 89 88 87 85 82 79 79 78 79 81 81 80 80 79 80 80 79 76 69 67 70 71 72 72 69 67 68 68 69 68 68 68 67 67 66 64 62 59 58 59 60 61 62 62 62 61 59 57 57 58 58 58 57 57 57 57 58 59 58 58 58 58 58 58 58 57 57 58 58 57 57 58 58 59 60 62 64 64 64
101 99 97 96 96 95 93 92 91 90 88 84 82 82 82 83 83 81 80 79 78 78 78 78 78 71 66 70 73 72 73 71 69 69 70 70 70 69 69 69 68 67 66 65 63 60 60 60 61 62 63 63 62 61 60 60 60 60 59 59 59 59 59 59 60 60 60 60 60 59 59 59 59 59 59 59 59 60 60 60 60 60 62 65 66 65
102 100 99 99 99 97 95 95 93 92 92 88 86 87 87 86 84 82 80 79 80 78 75 76 78 74 68 70 74 73 73 74 73 73 72 72 72 71 71 70 69 68 67 66 65 64 62 61 60 61 61 63 63 63 63 62 62 62 61 60 59 60 60 61 62 62 62 62 62 62 62 62 61 61 61 60 60 61 61 61 62 62 63 66 67 66
104 103 102 103 102 99 99 98 96 96 95 91 90 91 89 85 84 83 81 80 80 77 74 75 77 75 69 68 74 75 75 78 78 76 75 74 74 73 72 72 70 69 69 68 67 66 64 63 62 61 61 62 63 63 63 63 63 63 62 62 60 60 60 61 62 63 63 64 64 65 64 64 63 62 62 61 61 62 62 62 63 64 66 67 67 67
108 106 105 104 103 102 101 100 98 99 96 92 92 92 88 85 84 83 81 81 79 75 74 75 75 75 69 65 72 78 78 79 79 78 77 76 75 75 74 73 72 71 70 69 68 68 67 65 64 63 63 64 63 63 63 62 63 63 63 63 62 62 62 62 62 63 64 65 66 67 66 65 65 63 63 63 62 63 63 63 63 65 67 67 68 68
111 109 107 104 103 102 101 100 100 99 95 92 91 89 87 85 84 83 82 81 78 76 74 75 75 76 71 65 70 78 79 77 78 80 80 79 77 76 75 75 74 72 71 70 70 70 70 68 67 66 66 66 65 65 64 63 63 63 64 64 64 65 64 64 64 65 65 66 67 68 68 67 66 65 65 64 63 64 64 64 63 64 66 67 68 69
111 110 109 106 105 103 101 101 100 96 91 89 88 87 86 86 84 84 83 80 79 77 75 76 77 76 72 68 68 73 77 76 78 79 80 80 79 78 77 76 75 74 73 72 72 72 72 71 70 69 68 68 67 67 66 65 64 64 64 65 66 66 66 66 66 66 67 67 68 69 69 68 67 67 67 66 65 66 66 65 64 64 66 68 69 71
112 111 108 106 104 101 99 100 98 94 91 89 89 89 89 88 86 85 84 82 81 79 77 77 77 74 71 69 69 72 75 76 77 79 79 80 80 80 79 77 76 76 75 75 74 74 73 73 73 72 71 70 69 69 69 68 67 66 66 66 67 67 67 67 67 67 67 68 68 69 69 69 68 68 68 68 68 68 68 67 67 67 69 71 72 75
112 110 106 103 102 100 100 100 98 96 95 95 95 94 93 91 89 88 86 84 83 82 80 78 76 73 71 71 73 75 76 77 77 78 80 81 81 81 80 80 79 77 77 77 76 76 75 75 75 75 74 72 71 71 70 70 69 68 68 68 68 69 69 69 69 68 68 68 68 68 68 69 68 69 69 70 70 71 72 72 72 73 74 75 77 78
112 110 106 104 103 102 102 102 100 98 99 99 98 96 93 91 91 90 89 87 86 85 83 80 77 74 73 71 72 76 79 81 81 79 80 81 80 80 81 81 82 80 79 78 78 78 78 77 76 76 75 74 74 73 72 72 72 71 71 71 71 71 71 71 71 71 70 70 69 68 68 69 69 70 70 71 72 73 73 73 75 76 77 78 79 80
111 109 106 105 104 103 104 103 102 102 103 102 99 96 94 93 93 93 92 91 89 86 83 80 76 75 73 71 72 76 79 82 84 83 82 82 80 80 80 81 82 82 81 80 79 80 80 80 79 78 77 76 76 76 75 75 74 74 75 74 74 74 74 74 73 72 72 72 71 70 70 71 71 72 73 74 74 75 74 74 75 77 78 78 80 81
112 110 108 107 106 106 106 105 105 106 105 102 99 96 96 96 95 94 94 92 89 87 83 80 77 75 73 72 74 78 79 80 84 84 84 84 84 83 81 81 81 82 83 82 82 82 81 81 82 81 81 80 79 79 78 78 77 77 78 78 78 78 77 77 75 75 75 74 74 73 73 74 74 74 75 76 77 77 76 76 77 78 79 80 81 83
115 114 112 110 109 109 109 108 107 106 103 101 98 97 97 97 96 94 94 92 90 89 86 83 81 77 74 74 77 80 80 81 83 83 83 84 85 86 85 84 83 82 82 83 84 84 84 83 83 83 84 83 83 82 81 81 80 80 80 80 81 81 80 80 79 78 78 77 76 76 76 76 76 77 77 78 79 79 78 79 80 81 81 82 84 85
116 115 114 112 112 113 111 109 107 104 102 99 98 97 97 98 96 94 93 92 92 90 89 88 84 79 76 76 78 81 82 82 83 83 83 83 83 85 86 87 87 86 85 85 85 85 86 86 86 86 85 86 86 85 85 85 84 83 83 83 83 83 83 83 82 82 82 81 80 79 79 79 79 79 80 80 80 81 81 81 82 83 84 84 86 87
117 115 114 114 113 113 112 109 107 105 104 102 100 99 99 99 99 98 96 95 95 95 93 92 87 80 77 77 78 82 83 83 84 85 86 85 84 84 85 86 88 88 88 87 87 86 87 88 89 89 88 88 88 87 87 88 88 87 87 86 86 86 86 86 85 85 85 84 83 82 82 82 82 83 83 83 83 83 83 84 85 86 86 87 88 90
117 115 114 114 113 112 111 110 109 108 106 106 106 104 102 103 102 101 99 98 97 96 94 93 88 81 78 77 78 83 85 84 85 87 89 89 87 86 86 86 88 89 89 89 89 88 88 88 89 91 91 91 90 90 90 90 90 90 90 90 89 89 88 88 88 88 88 87 86 86 86 86 86 86 86 86 86 86 86 87 88 88 89 90 91 92
118 117 116 115 114 113 112 111 111 110 110 109 108 105 103 103 103 102 101 100 98 96 94 94 90 82 78 77 80 85 86 85 87 89 91 92 92 90 88 87 88 89 90 90 90 90 89 88 89 90 92 93 93 93 93 92 92 93 93 93 92 92 91 91 91 91 90 90 89 89 89 89 90 90 90 89 89 89 89 90 91 91 92 93 94 95
115 117 118 117 116 116 115 113 112 111 109 107 104 103 103 103 103 104 103 101 99 97 95 95 91 84 80 80 84 88 88 88 90 91 92 94 94 93 92 91 90 89 89 89 90 91 91 90 89 90 91 92 94 95 95 95 95 95 95 95 95 95 95 95 94 94 93 93 93 92 93 93 93 93 93 93 93 92 92 93 93 94 95 96 97 98
112 114 116 117 116 115 112 110 108 106 102 101 101 103 103 104 104 104 103 102 100 96 96 97 92 88 85 84 86 89 90 92 93 92 93 94 94 94 94 94 93 92 91 91 91 91 92 92 91 91 90 91 92 93 95 96 97 97 98 98 98 98 98 98 98 97 97 97 96 96 96 96 96 96 97 97 96 96 96 96 97 98 98 99 100 100
116 116 115 115 114 113 110 107 105 103 102 102 102 103 103 103 104 103 103 103 100 98 101 101 96 92 89 87 87 89 92 94 95 94 94 94 95 95 95 95 95 95 95 94 94 94 94 94 94 94 93 92 92 92 93 95 97 98 99 100 100 100 100 100 100 100 100 100 100 99 99 99 99 99 99 99 100 100 100 100 101 101 102 102 103 103
117 119 116 114 113 112 111 110 108 108 109 108 108 107 107 106 107 107 107 106 103 104 106 102 96 92 89 89 91 92 93 94 95 94 94 94 95 96 96 96 96 97 97 97 97 97 96 96 96 96 96 95 94 94 93 93 94 96 98 100 101 101 102 102 102 102 103 103 103 103 103 102 102 102 102 102 103 103 103 104 104 104 105 105 105 106
113 117 115 113 113 113 111 111 111 111 112 113 114 113 113 113 113 113 112 107 104 106 104 97 94 93 90 91 94 93 93 94 96 97 97 96 96 96 97 97 98 98 98 98 99 99 98 98 97 97 97 97 97 97 96 95 95 95 96 97 99 101 103 104 104 105 105 104 104 105 105 105 105 105 105 106 106 106 106 106 107 107 108 108 108 109
105 113 116 115 114 114 113 112 113 114 115 115 115 115 115 115 115 114 110 106 105 105 101 95 95 95 92 93 95 95 94 95 97 100 101 100 100 99 99 98 98 98 98 98 99 99 100 100 99 99 98 98 99 99 99 99 99 98 98 98 98 99 100 102 104 105 106 106 107 106 106 106 107 107 107 108 108 108 109 109 109 110 110 110 111 111
96 104 112 115 116 117 116 115 115 115 116 116 116 116 116 116 115 111 106 104 105 105 99 97 98 96 94 96 98 98 99 99 99 102 103 103 104 103 102 100 98 98 98 99 100 101 101 101 101 102 102 101 101 100 101 101 101 101 101 100 100 100 100 100 101 103 104 105 107 107 108 108 108 109 109 110 110 110 111 111 112 112 113 113 113 114
93 97 105 111 116 118 116 116 117 116 117 118 118 117 116 113 110 106 103 102 104 104 101 101 102 98 97 100 101 100 101 101 101 103 105 106 106 106 104 103 101 100 100 101 102 103 103 104 104 105 104 104 103 102 101 101 101 101 102 102 102 101 101 101 101 102 102 103 104 105 106 107 108 109 110 111 113 113 113 114 114 114 115 115 115 116
97 97 101 105 112 117 116 114 116 118 119 118 115 112 110 108 106 104 104 104 104 104 103 104 103 101 101 103 104 103 102 101 102 103 105 107 107 107 105 104 104 104 103 103 104 105 106 106 107 107 106 106 106 105 104 103 103 103 103 103 103 103 103 103 103 103 103 103 103 104 104 105 106 106 108 109 111 113 114 115 116 117 118 118 118 119
100 98 99 99 103 112 116 115 114 117 119 115 110 107 106 107 106 106 105 105 105 107 107 105 104 104 103 103 103 104 103 104 105 106 107 108 107 106 105 104 105 105 106 106 107 107 107 107 107 107 107 107 108 108 108 108 108 108 108 107 107 106 106 106 106 106 106 106 106 106 106 106 106 106 107 107 108 109 111 113 115 116 118 119 120 121
103 102 102 100 99 103 111 117 117 114 111 107 106 108 110 110 109 108 107 107 108 108 107 105 103 102 102 102 103 104 105 107 109 108 108 107 107 106 106 106 106 106 107 107 107 108 108 108 108 108 108 109 110 110 110 111 111 112 112 112 113 112 112 112 111 111 111 111 111 111 110 110 110 109 109 109 109 109 110 111 112 113 114 116 118 120
104 104 105 106 104 103 108 116 117 113 108 106 107 110 113 113 111 109 107 106 107 107 107 105 103 102 103 104 104 105 106 108 109 108 108 109 109 109 109 108 109 108 108 107 107 108 109 109 110 110 110 111 111 112 112 112 113 113 114 115 116 116 116 116 116 116 116 116 115 115 114 114 114 113 113 113 112 112 112 112 112 113 114 114 115 116
105 105 107 109 109 108 106 105 106 109 112 114 113 112 111 111 110 110 110 108 109 110 108 106 105 105 106 106 106 107 108 110 110 107 107 110 113 112 111 110 110 110 110 110 110 110 111 111 112 113 113 112 112 112 113 113 113 114 114 115 116 116 117 118 119 119 119 119 118 118 117 117 116 116 116 116 116 115 115 115 115 115 116 116 116 117
105 104 105 107 109 109 106 100 98 104 111 115 113 109 108 107 108 112 115 113 111 110 108 106 105 105 107 108 109 111 112 112 108 106 108 113 115 114 113 112 111 112 112 112 112 112 113 114 114 115 115 115 114 114 114 115 115 115 115 116 116 117 117 118 119 120 120 121 121 121 120 120 119 119 119 118 118 118 117 117 117 117 117 117 118 119
109 106 104 106 108 109 109 106 103 102 103 104 104 104 106 106 107 111 113 111 108 108 107 106 104 105 107 109 111 113 113 110 107 107 112 115 115 113 113 112 112 113 113 113 114 115 116 116 117 117 117 117 117 117 117 117 117 118 117 117 117 117 118 119 119 120 120 121 122 122 123 123 123 122 122 121 121 120 119 119 118 117 117 117 117 118
114 114 112 112 112 110 108 107 103 98 93 91 92 96 101 103 105 107 107 104 103 104 106 106 105 105 107 108 110 112 111 110 108 110 113 114 113 113 113 113 113 114 115 115 116 117 118 119 120 120 121 121 121 121 121 121 121 121 120 120 120 119 119 119 120 120 120 121 122 122 123 124 124 124 123 123 123 122 122 121 120 119 119 118 118 118
116 117 116 115 113 110 107 104 100 94 89 86 86 90 95 99 102 104 101 99 99 101 104 107 107 108 109 110 111 111 110 110 110 111 112 112 113 113 114 114 114 115 116 116 117 118 119 120 121 121 122 122 123 123 123 123 124 124 123 123 122 122 121 121 120 120 120 121 121 121 122 122 123 123 123 124 123 123 123 122 122 121 120 120 119 120
117 115 114 112 110 109 107 104 101 95 91 89 88 89 92 95 98 100 100 100 100 100 102 105 108 109 111 112 112 111 110 110 110 110 110 110 110 111 112 112 112 111 112 112 113 114 115 115 116 117 118 119 120 120 121 121 121 122 122 122 122 122 122 121 120 120 120 119 119 120 120 120 121 121 122 122 123 123 122 122 122 121 121 121 120 120
110 108 107 106 106 106 105 104 102 97 92 90 90 90 91 92 92 93 94 94 95 96 98 102 105 107 109 109 109 109 108 108 107 106 105 104 104 104 105 105 105 105 105 105 106 107 108 109 110 110 111 112 112 113 114 114 114 115 116 116 117 118 118 118 118 118 118 117 117 117 117 117 118 118 119 119 120 120 121 121 121 120 120 119 118 118
110 107 105 105 105 104 104 103 100 96 92 92 92 91 90 89 86 85 85 87 92 97 102 105 105 105 104 103 103 103 103 102 101 98 96 96 96 97 97 98 98 98 99 100 101 102 103 104 105 105 105 106 106 106 106 106 106 107 107 108 109 110 111 112 113 114 114 114 114 114 114 114 114 114 115 115 116 116 117 117 117 117 116 116 115 115
113 110 107 105 104 102 102 100 97 93 90 88 85 81 79 77 78 81 86 93 99 102 104 105 104 103 102 101 99 98 98 96 94 91 90 89 89 89 89 88 88 88 89 91 92 94 96 97 97 98 98 99 99 99 99 99 98 98 99 99 100 101 103 105 106 107 108 108 109 109 109 109 109 109 109 110 110 111 111 112 112 112 112 112 112 112
111 111 109 107 105 104 102 101 99 96 92 89 84 80 78 79 82 87 93 98 102 103 102 102 102 101 100 98 96 94 92 91 88 85 83 82 81 81 81 80 79 78 79 80 82 83 84 85 86 87 87 88 89 89 90 90 90 90 91 92 93 94 95 97 98 99 100 101 102 102 103 103 103 103 103 103 104 105 106 107 107 108 108 109 109 109
111 111 109 108 106 104 100 97 97 96 96 95 92 90 91 92 94 97 99 101 103 103 102 100 99 97 97 95 93 91 89 87 84 81 79 78 78 77 75 74 72 71 71 72 73 73 74 75 75 76 76 77 78 79 81 82 83 84 84 85 86 87 88 89 90 91 92 93 93 94 95 96 97 97 97 98 99 100 101 102 103 103 104 105 106 107
108 107 106 103 101 99 96 93 94 93 93 92 91 91 94 97 98 99 100 101 100 99 98 97 97 97 97 95 93 91 90 87 82 78 75 74 72 70 69 68 67 66 66 66 67 67 67 67 68 68 69 70 70 71 73 74 75 77 78 79 80 81 81 82 83 83 84 85 85 86 87 88 90 91 92 93 94 96 97 98 99 100 101 102 103 104
106 105 104 102 100 99 96 94 93 91 88 88 88 89 93 96 98 99 99 97 96 96 97 99 100 99 97 95 92 91 90 87 80 75 72 70 66 64 63 63 63 63 62 62 62 62 62 62 61 62 62 63 64 65 66 67 68 70 71 72 74 75 75 76 76 77 77 78 79 80 82 83 85 87 88 90 91 93 94 95 97 98 99 100 101 102
110 107 106 103 99 95 91 89 88 86 84 84 85 87 90 94 96 96 95 94 95 98 100 100 99 96 94 92 91 91 90 86 80 74 70 67 64 61 61 61 61 60 60 59 59 59 59 58 57 56 56 57 58 59 61 62 63 65 66 67 68 70 71 72 72 73 73 74 76 78 79 81 83 85 86 88 90 91 93 94 95 96 98 99 100 101
108 106 105 101 94 89 86 86 86 86 86 87 88 90 93 95 96 95 95 96 99 100 98 95 93 92 92 92 92 91 90 86 80 73 68 64 62 60 61 61 60 58 57 57 57 57 56 56 55 54 54 55 56 57 59 60 62 63 64 65 66 67 67 68 70 71 72 73 75 77 79 81 83 84 86 88 89 91 92 93 95 96 97 98 100 101
Wind_Direction
231 232 233 232 234 234 234 233 233 234 236 239 240 238 235 233 234 234 235 236 238 239 239 240 239 239 242 244 244 246 247 248 249 249 248 248 248 247 248 249 249 249 250 251 251 252 252 252 253 253 254 255 257 258 259 260 263 267 267 265 263 266 271 272 272 274 276 275 273 275 280 283 282 283 286 290 290 291 292 292 293 295 296 297 299 300
230 231 232 232 233 233 232 232 233 233 235 237 240 240 238 235 234 234 235 236 237 238 238 239 239 238 240 243 243 245 247 247 248 249 249 250 251 251 251 251 250 250 250 249 249 250 251 251 251 252 254 256 257 258 259 259 261 265 266 265 264 266 270 273 273 272 274 276 274 274 277 280 282 283 284 287 287 287 289 290 291 293 294 296 297 298
230 230 232 233 233 233 233 232 233 233 233 236 239 241 241 238 235 235 235 235 236 237 237 239 239 238 240 243 245 245 247 248 249 250 251 252 254 254 253 252 252 252 252 250 248 249 250 251 251 251 253 255 258 259 259 257 259 262 265 267 267 266 268 271 272 271 273 276 275 274 275 278 282 282 281 283 285 285 287 288 288 290 292 293 295 296
230 231 233 235 235 234 233 233 234 234 234 236 239 241 242 241 238 236 235 235 235 235 236 238 238 238 240 244 246 246 246 248 249 251 253 255 256 256 255 254 253 253 252 252 251 251 251 251 251 251 253 255 257 258 258 257 256 258 260 262 264 264 265 266 268 270 272 274 274 274 275 278 281 281 280 282 285 286 287 287 286 287 289 291 294 295
230 230 232 234 235 235 234 234 234 234 235 235 238 240 241 242 241 239 236 235 235 234 236 238 238 238 240 242 244 244 244 246 249 251 253 255 256 256 256 256 255 254 253 253 253 254 254 253 252 253 254 255 256 256 257 257 257 257 258 259 261 261 263 265 268 271 273 273 273 274 276 278 281 281 281 282 284 286 287 287 286 286 288 291 293 294
229 229 230 232 233 234 235 235 235 235 234 234 236 238 239 241 242 242 239 236 235 234 235 237 238 237 239 241 244 245 244 245 248 251 252 254 255 256 256 256 256 256 255 255 255 255 255 254 254 254 254 255 255 257 257 258 258 258 258 259 260 262 264 267 269 272 273 274 275 276 278 280 282 282 282 282 283 285 286 287 287 286 288 290 292 293
228 228 229 231 232 233 233 234 235 235 235 234 234 236 237 238 241 242 241 239 236 235 235 236 236 236 239 242 244 247 247 245 247 250 252 253 254 255 254 255 256 257 257 257 256 255 255 255 255 254 255 255 256 257 258 258 257 257 258 259 261 263 265 267 269 271 272 274 276 279 280 282 282 282 282 282 283 283 285 287 287 287 287 289 290 291
228 228 229 230 232 233 233 233 233 234 234 234 234 235 236 237 239 241 242 241 239 236 235 236 237 236 238 241 243 246 248 246 246 248 250 252 252 252 253 254 256 256 257 257 257 256 255 255 255 255 256 257 257 258 259 258 257 257 257 259 261 263 265 266 268 270 272 274 277 279 281 282 282 282 283 284 283 283 284 285 285 286 287 287 288 290
229 229 229 231 232 233 234 234 234 234 233 232 233 234 235 236 238 240 241 242 241 238 236 237 238 236 236 240 241 243 247 247 245 245 247 249 249 249 251 252 254 255 256 256 257 256 255 255 255 256 257 258 259 259 259 258 257 257 257 259 260 262 264 266 268 270 272 274 277 279 281 281 281 283 284 285 285 284 283 284 284 284 285 286 287 289
227 228 229 229 231 232 233 234 234 235 234 232 232 233 233 235 237 238 240 242 243 241 238 237 238 237 235 238 241 242 243 245 244 243 243 246 247 247 249 251 252 253 254 255 255 255 255 256 257 257 258 258 259 259 259 259 258 257 257 259 260 262 264 266 268 269 272 274 276 279 280 280 281 282 285 286 285 284 284 284 284 284 283 285 287 289
224 225 226 227 228 229 231 232 233 234 234 232 232 233 233 235 236 238 240 241 243 243 241 239 239 238 236 237 241 241 240 242 243 243 243 243 245 247 249 250 251 252 253 254 254 255 256 256 257 257 258 258 259 259 260 260 259 259 258 259 261 263 264 266 268 269 271 273 275 277 278 280 280 281 284 285 285 285 284 285 285 284 284 285 286 287
223 224 224 226 227 228 230 231 232 233 233 233 233 234 234 235 236 238 239 241 243 243 243 242 240 239 236 236 240 241 239 240 243 244 244 243 244 246 249 250 251 252 253 254 255 256 256 256 256 256 257 257 259 260 260 260 261 261 260 261 262 264 265 267 268 269 270 272 274 275 277 278 279 280 282 284 285 285 285 285 285 285 285 285 285 287
224 225 225 225 226 228 229 231 233 233 234 234 235 236 236 236 237 238 240 241 243 243 243 243 242 240 235 233 238 241 241 240 242 244 245 245 245 246 248 250 252 252 253 254 255 255 256 256 255 255 256 257 258 260 261 262 262 262 262 263 264 265 267 269 270 270 271 272 273 274 275 277 277 278 279 281 282 284 284 285 286 286 286 286 286 288
227 226 227 227 227 228 229 231 233 235 236 236 237 238 238 238 238 239 240 241 241 241 241 241 241 240 237 233 236 243 244 242 242 243 245 246 247 247 248 250 251 253 253 253 253 253 254 255 255 255 255 256 258 259 261 263 263 264 264 265 265 267 268 270 271 271 272 272 272 273 274 275 276 277 278 280 281 283 284 285 285 285 285 285 285 286
229 229 229 229 230 230 231 232 234 235 236 236 237 237 237 236 237 238 238 238 238 238 238 238 240 242 240 236 236 241 245 245 245 245 245 246 247 248 248 249 250 251 252 252 252 252 253 253 254 255 256 256 257 259 261 262 263 264 265 266 267 268 269 270 271 272 272 272 271 272 272 273 274 275 277 279 280 281 281 282 282 282 282 282 283 284
226 228 228 230 231 231 232 233 234 235 236 236 237 237 237 237 237 237 237 237 237 238 239 240 242 243 242 239 238 240 244 247 247 247 247 246 246 247 247 248 248 248 249 250 251 251 252 252 253 254 256 257 257 258 259 261 262 263 264 265 266 267 268 270 271 272 272 272 272 271 271 271 272 273 274 276 277 278 279 280 280 280 280 281 282 284
226 227 226 227 228 229 230 232 233 234 235 236 237 238 239 239 239 239 238 238 238 239 240 241 242 242 241 241 241 241 242 245 247 248 248 248 247 247 246 246 247 248 248 249 250 251 252 252 253 253 254 256 257 257 258 259 261 262 263 263 264 266 267 269 270 271 272 272 272 272 271 271 271 272 273 275 277 278 279 280 280 280 280 281 283 284
227 228 228 228 228 229 230 231 231 233 234 235 236 236 237 238 238 239 238 238 238 239 240 241 240 240 240 239 240 241 242 244 246 247 249 249 249 248 246 246 246 248 248 248 249 250 251 252 253 254 254 254 255 257 257 258 260 261 262 263 264 265 266 267 268 270 271 271 272 272 272 271 272 273 274 275 276 277 278 279 280 280 280 281 282 283
226 227 227 228 228 229 230 231 231 233 234 235 236 236 237 238 239 239 240 239 239 240 239 240 239 239 239 238 238 240 242 243 245 246 247 249 250 250 249 248 247 247 248 249 249 250 250 251 252 254 254 255 255 256 257 258 259 260 261 262 263 264 265 266 268 268 269 270 271 271 271 272 272 273 274 275 276 277 278 278 279 280 280 280 281 282
224 225 226 226 227 228 229 230 231 232 234 236 236 237 239 240 241 241 242 242 241 241 240 239 239 238 237 237 237 239 241 243 245 246 247 248 250 251 252 251 250 249 249 249 249 250 251 251 252 253 254 255 256 257 257 258 259 259 260 261 262 264 265 267 268 268 269 269 270 270 270 271 272 272 273 274 275 276 277 277 278 279 280 280 280 281
224 225 226 226 227 228 229 230 231 231 233 234 235 237 238 240 241 242 243 243 242 242 241 240 239 237 236 236 237 238 240 242 244 246 247 247 248 250 252 253 253 252 251 250 250 250 251 252 252 253 254 255 256 257 257 258 258 259 260 261 262 263 265 266 268 268 269 269 269 269 269 270 270 271 271 272 273 274 275 276 277 278 279 280 280 281
224 225 226 227 228 229 230 230 231 231 232 233 233 234 236 238 239 239 239 240 240 239 239 239 237 236 236 237 238 239 240 241 243 246 247 248 248 249 251 252 253 254 254 253 252 251 251 252 253 254 254 255 255 256 257 258 259 260 261 261 262 263 264 265 267 268 268 269 269 269 268 269 269 270 271 272 272 273 274 274 275 277 278 278 279 280
225 225 226 227 228 229 231 231 231 231 232 233 233 234 235 237 238 239 239 240 240 240 240 240 238 237 238 239 240 241 241 241 243 245 247 248 249 249 250 252 253 254 255 255 255 254 253 253 253 254 255 255 256 256 257 258 259 260 261 262 263 263 264 265 266 267 267 268 268 268 268 268 269 270 270 271 272 273 273 273 274 275 276 277 278 279
224 225 225 226 227 228 229 230 231 232 232 232 233 234 236 237 239 240 240 241 241 242 242 242 240 238 239 239 240 241 242 242 243 244 246 248 249 250 250 251 253 254 255 256 257 257 256 254 254 254 255 256 256 257 257 258 258 259 261 262 263 263 264 264 265 266 266 267 267 267 268 268 269 270 270 271 272 272 273 273 273 274 275 276 277 278
224 225 225 226 226 227 228 229 230 232 233 234 235 236 237 238 239 240 241 242 242 243 243 243 242 239 239 239 240 242 243 244 244 244 245 247 248 249 250 250 252 253 255 256 257 258 258 257 256 255 255 255 257 257 258 259 259 260 261 262 263 263 264 265 265 266 266 266 267 267 268 268 269 270 270 271 272 272 272 272 273 274 275 276 277 278
225 225 226 227 228 229 230 231 232 234 235 236 237 238 238 239 241 242 243 243 243 244 245 245 244 241 239 238 240 242 244 245 245 244 245 247 248 249 250 251 252 253 254 255 256 258 259 259 259 258 257 257 257 258 259 260 260 261 262 262 263 264 264 265 266 266 267 267 267 268 268 268 269 270 270 271 272 273 273 273 273 274 275 276 277 278
227 225 224 226 227 228 229 230 231 232 233 234 235 236 238 239 240 241 242 243 243 243 244 244 243 241 239 239 240 242 243 245 245 245 246 247 248 249 250 251 252 253 254 255 256 258 259 260 261 262 261 261 260 259 259 260 260 261 262 263 263 264 265 265 266 266 267 267 268 268 269 269 270 270 271 272 272 273 274 274 274 275 276 276 277 278
230 227 225 225 226 227 227 227 227 229 229 230 231 232 233 235 236 237 237 238 239 240 241 242 242 241 241 241 241 241 242 244 246 247 247 248 249 250 251 252 253 254 255 256 257 258 259 260 261 262 263 263 263 262 262 261 261 261 262 263 264 265 265 265 266 266 267 267 268 268 269 270 270 271 272 272 273 274 274 275 275 276 276 277 278 278
233 230 226 226 226 227 227 227 227 228 229 230 230 231 231 232 233 234 235 236 238 240 241 242 243 243 243 243 243 242 243 244 247 248 249 250 250 251 252 253 254 255 255 256 257 258 259 260 260 261 262 263 264 264 264 264 263 263 262 263 263 264 265 265 265 266 266 267 267 268 269 270 270 271 272 273 273 274 275 275 276 276 277 278 278 279
234 232 228 226 226 227 228 228 228 229 230 231 232 233 233 235 236 237 238 239 240 242 242 243 245 245 245 245 245 244 243 244 246 248 249 250 250 251 252 253 254 254 255 256 257 258 259 260 261 261 262 263 263 264 264 265 264 264 263 263 263 263 264 264 265 266 266 267 267 268 269 270 270 271 272 273 273 274 275 275 276 276 277 278 278 279
234 234 232 229 228 228 229 229 229 230 231 232 233 233 234 236 237 239 240 241 243 244 244 244 245 246 246 246 246 245 244 243 245 247 248 249 251 252 253 253 254 254 255 255 256 257 258 259 260 261 262 262 263 263 264 265 265 265 265 265 265 265 265 265 265 266 267 268 268 269 269 270 271 271 272 273 274 274 275 275 276 277 277 278 278 279
234 236 236 233 231 230 230 230 231 231 232 233 233 234 236 237 239 241 242 243 244 245 245 245 246 246 246 246 246 246 246 246 245 247 249 251 253 254 254 255 255 255 255 255 256 257 258 259 259 260 260 261 262 263 264 265 266 267 267 268 268 267 267 267 267 267 268 268 269 269 270 270 271 271 272 273 273 274 274 275 276 276 277 278 279 280
235 237 238 238 237 234 232 231 232 232 233 234 235 237 238 240 241 241 242 243 244 245 245 246 247 247 247 248 249 250 250 250 250 250 251 252 254 255 255 256 256 256 256 256 257 258 258 259 259 259 260 261 261 262 264 265 266 267 268 269 269 270 270 270 269 269 269 269 269 270 270 271 271 272 272 273 273 274 274 274 275 276 277 277 278 279
235 236 238 239 241 239 236 233 232 232 233 234 235 237 239 240 240 241 242 242 244 245 245 246 247 248 249 250 252 253 253 253 253 252 252 253 254 255 255 255 256 256 257 257 258 258 258 259 259 260 260 261 261 262 263 264 265 266 267 268 269 270 270 271 271 271 271 271 271 271 271 272 272 273 273 274 274 274 275 275 275 276 276 277 278 278
233 235 236 237 240 242 240 237 234 233 233 234 235 236 237 239 239 240 241 242 243 245 246 248 249 250 251 252 252 253 254 254 254 254 254 254 254 254 254 254 255 256 257 258 258 259 260 260 261 261 261 261 262 262 263 263 264 265 266 267 268 268 269 270 271 272 272 273 273 273 273 273 273 274 274 274 274 275 275 275 276 276 277 277 278 278
232 233 235 236 238 241 243 242 239 236 235 235 235 235 237 238 239 240 241 242 244 245 246 247 248 249 250 251 251 252 253 254 254 255 256 256 255 255 255 255 256 257 258 259 260 260 261 262 262 263 263 263 263 264 264 264 264 265 266 266 267 268 268 269 270 271 271 272 273 274 274 274 275 274 274 274 274 275 275 275 276 276 277 278 278 278
230 232 234 236 237 239 243 246 244 241 240 238 236 236 238 239 239 240 240 241 242 244 244 245 247 248 249 251 252 252 253 254 255 256 257 257 257 256 257 257 258 259 260 260 261 262 262 263 263 264 264 265 265 265 266 266 266 266 266 266 267 267 268 269 269 270 270 271 272 273 273 274 274 274 275 275 275 275 275 275 276 276 276 277 277 278
228 231 233 235 237 238 240 242 242 242 242 240 239 239 240 241 241 241 240 241 242 244 245 247 248 249 251 252 253 253 254 255 256 257 258 258 259 259 259 260 260 262 262 263 263 263 264 264 265 265 266 266 266 266 267 267 267 267 267 267 267 268 268 268 269 270 270 271 271 272 272 272 273 273 274 275 275 275 276 276 276 276 276 276 277 277
227 230 232 233 235 237 239 240 241 243 244 244 243 243 243 243 243 242 242 241 242 244 246 247 249 250 252 253 254 254 255 256 256 257 258 259 261 262 262 263 263 263 264 265 266 266 266 266 266 266 267 267 267 268 268 268 268 268 268 268 268 268 268 269 269 270 270 270 271 271 271 272 272 273 273 274 274 275 275 275 276 276 276 276 276 276
229 230 231 232 233 235 237 238 240 242 243 244 245 245 245 244 243 243 243 241 242 244 246 247 249 250 252 253 254 255 256 256 257 258 259 261 263 264 264 265 265 265 265 265 266 267 267 268 268 268 268 269 269 269 269 269 269 269 269 269 269 269 269 269 269 269 270 270 270 270 271 271 272 272 272 273 273 274 274 274 275 275 275 275 275 275
232 233 234 235 235 236 237 239 240 241 242 244 245 247 247 247 247 246 246 245 246 248 249 250 251 252 252 253 254 255 256 257 258 260 261 262 264 264 265 266 266 266 266 266 266 267 267 268 268 269 269 269 270 270 270 270 270 270 270 270 270 270 270 270 269 269 269 269 269 270 270 270 270 271 271 271 272 272 273 273 273 274 274 274 274 274
235 237 238 239 239 240 241 242 242 243 244 246 248 251 253 254 255 255 255 255 256 256 256 255 255 254 253 253 254 256 257 259 260 261 262 264 265 266 267 267 267 267 267 267 267 267 268 268 268 268 269 269 269 269 269 269 269 269 270 270 269 269 269 269 269 269 269 269 269 269 269 269 269 269 270 270 270 271 271 271 272 272 272 273 273 273
236 238 239 240 241 241 242 243 244 245 247 249 252 255 258 261 262 262 261 261 260 258 257 256 257 258 258 257 257 258 260 261 262 263 265 267 268 268 269 269 269 269 268 268 268 268 268 268 268 268 268 268 268 268 268 268 269 269 269 268 268 268 268 268 268 268 268 268 268 268 268 268 268 268 268 268 269 269 270 270 270 271 271 272 273 273
235 236 236 237 238 239 241 244 245 247 249 252 254 257 259 260 261 260 259 257 256 257 258 259 260 261 262 263 263 263 264 265 266 268 270 271 271 271 271 272 272 272 271 270 269 269 268 268 268 268 268 268 268 268 268 268 268 269 269 269 269 268 268 268 268 267 267 267 267 267 267 267 267 267 267 267 268 268 269 269 270 270 271 272 272 273
234 235 235 235 236 238 240 242 244 246 248 252 254 255 256 255 254 254 254 256 258 260 262 263 263 264 265 265 265 266 267 269 270 272 273 274 274 274 274 275 275 275 274 272 270 269 268 267 267 267 267 267 267 267 268 268 268 268 269 269 269 269 268 268 268 267 267 266 266 266 266 266 266 267 267 267 267 268 268 269 270 270 271 272 272 273
233 235 236 236 237 239 240 242 244 246 248 251 252 251 250 250 250 252 255 259 262 263 265 266 266 267 267 268 269 270 271 271 272 273 275 275 276 277 277 276 276 277 276 274 271 269 267 266 266 265 266 266 266 266 267 267 268 268 268 268 268 268 268 268 268 268 267 267 267 267 267 267 267 267 267 268 268 269 269 270 270 271 272 272 273 273
233 234 235 237 238 240 243 245 248 249 250 252 253 253 253 253 255 258 261 263 265 266 266 267 268 269 271 272 273 274 274 273 274 276 278 280 280 279 277 277 277 278 278 276 273 270 268 266 266 266 266 266 266 266 266 267 267 267 267 267 267 267 267 267 268 268 268 268 268 268 268 268 268 269 269 269 269 270 270 271 271 272 272 273 273 274
234 235 237 238 240 242 245 248 250 250 251 252 252 253 255 257 258 260 262 263 264 266 267 268 270 271 272 273 274 274 275 276 278 280 282 285 284 280 278 278 279 278 278 277 275 272 270 268 267 267 267 267 267 267 268 268 268 268 268 268 268 268 268 268 268 269 269 269 269 269 268 269 269 269 269 270 270 270 270 271 271 272 272 273 273 274
234 236 238 241 243 244 246 248 250 251 251 252 252 254 257 259 260 260 261 262 264 266 267 268 269 270 271 272 274 276 278 280 281 282 285 287 285 281 280 281 281 280 279 277 275 274 272 271 269 269 268 268 269 269 270 270 270 270 270 270 270 270 270 270 270 270 270 270 269 269 268 268 268 268 268 268 269 269 270 270 271 271 271 272 273 273
236 238 240 242 244 245 247 248 250 250 251 252 253 255 256 257 258 259 260 262 264 264 265 267 268 270 273 275 278 279 280 281 281 283 286 287 283 281 282 283 283 282 281 279 277 275 273 273 272 272 272 271 272 272 272 272 272 272 272 271 271 271 271 271 271 271 271 270 270 269 269 268 268 267 267 267 268 268 268 269 269 270 270 271 271 272
239 241 242 243 244 245 246 246 246 247 248 248 249 251 252 253 256 258 260 261 263 264 266 269 271 274 277 279 280 281 281 281 282 284 287 286 281 281 284 285 284 283 282 281 280 278 276 275 274 274 274 275 275 274 274 274 274 274 274 273 273 273 273 272 272 272 271 271 271 270 269 269 268 268 268 268 268 268 268 269 269 270 270 271 271 272
Height
10710 10713 10722 10734 10742 10745 10750 10754 10754 10754 10758 10761 10761 10768 10778 10782 10787 10791 10794 10800 10803 10808 10813 10816 10819 10820 10822 10828 10833 10837 10841 10843 10847 10850 10852 10855 10857 10860 10862 10863 10865 10866 10870 10873 10873 10872 10873 10874 10875 10876 10877 10878 10878 10878 10878 10878 10878 10879 10879 10879 10879 10879 10879 10879 10879 10879 10878 10877 10876 10875 10874 10874 10873 10872 10872 10872 10872 10870 10869 10868 10867 10866 10865 10864 10862 10861
10701 10709 10722 10730 10733 10735 10741 10744 10745 10748 10752 10753 10755 10763 10770 10776 10781 10785 10789 10794 10797 10803 10807 10809 10814 10816 10816 10820 10827 10833 10836 10838 10841 10844 10847 10850 10853 10856 10858 10859 10860 10862 10865 10868 10867 10867 10868 10870 10871 10872 10873 10873 10874 10875 10875 10875 10875 10875 10875 10875 10876 10875 10875 10875 10875 10875 10875 10874 10873 10872 10871 10870 10869 10869 10869 10869 10868 10867 10866 10864 10863 10862 10861 10860 10859 10857
10698 10713 10721 10722 10724 10728 10733 10736 10737 10742 10747 10748 10751 10757 10764 10770 10776 10778 10781 10787 10792 10798 10801 10802 10809 10811 10810 10815 10822 10828 10832 10833 10835 10839 10842 10847 10850 10852 10853 10854 10856 10858 10860 10863 10862 10862 10863 10865 10867 10868 10868 10869 10870 10872 10872 10872 10872 10872 10872 10872 10873 10872 10871 10871 10871 10871 10871 10871 10870 10869 10867 10866 10866 10865 10865 10865 10864 10863 10862 10861 10859 10858 10857 10855 10854 10853
10700 10714 10717 10714 10717 10722 10727 10729 10733 10739 10744 10745 10748 10753 10758 10763 10767 10770 10774 10781 10787 10792 10794 10797 10804 10807 10807 10811 10818 10824 10828 10827 10830 10835 10838 10843 10847 10847 10848 10850 10852 10853 10855 10857 10857 10857 10859 10861 10862 10862 10863 10865 10866 10867 10867 10868 10869 10869 10869 10870 10870 10869 10867 10866 10867 10867 10867 10867 10866 10865 10863 10863 10862 10861 10861 10861 10860 10859 10858 10856 10855 10853 10852 10851 10850 10849
10695 10705 10705 10705 10709 10715 10720 10724 10729 10735 10739 10742 10745 10748 10751 10754 10757 10760 10767 10775 10779 10786 10790 10791 10798 10805 10803 10806 10812 10816 10821 10822 10825 10830 10834 10837 10840 10841 10843 10845 10847 10848 10850 10852 10852 10852 10854 10856 10857 10857 10859 10860 10861 10861 10862 10863 10865 10865 10866 10866 10866 10865 10863 10862 10862 10863 10863 10862 10861 10860 10859 10858 10858 10857 10857 10856 10856 10855 10853 10851 10850 10848 10847 10846 10845 10844
10684 10690 10692 10695 10699 10707 10714 10719 10725 10729 10733 10736 10739 10742 10744 10746 10747 10752 10761 10768 10772 10780 10786 10787 10794 10801 10798 10800 10805 10807 10814 10820 10820 10824 10829 10831 10833 10835 10838 10839 10840 10842 10844 10846 10848 10848 10849 10850 10851 10853 10853 10854 10855 10856 10858 10859 10860 10861 10861 10861 10862 10861 10860 10859 10858 10858 10858 10857 10856 10856 10855 10854 10854 10853 10852 10852 10852 10851 10849 10847 10846 10844 10842 10841 10840 10839
10672 10680 10684 10687 10693 10699 10705 10712 10717 10721 10725 10730 10735 10735 10736 10738 10739 10744 10754 10760 10766 10775 10781 10782 10789 10797 10796 10797 10801 10801 10808 10816 10816 10819 10823 10824 10826 10829 10831 10831 10833 10836 10838 10840 10843 10843 10844 10845 10846 10847 10847 10849 10850 10851 10853 10855 10855 10855 10855 10856 10856 10856 10856 10855 10854 10854 10854 10853 10852 10851 10850 10849 10849 10848 10847 10848 10847 10846 10844 10842 10841 10839 10838 10836 10835 10833
10664 10673 10678 10683 10689 10693 10699 10705 10709 10712 10717 10724 10729 10728 10729 10730 10731 10738 10746 10753 10760 10769 10775 10776 10783 10794 10795 10792 10795 10796 10800 10808 10812 10813 10815 10816 10818 10821 10822 10823 10825 10828 10831 10834 10837 10839 10839 10840 10841 10841 10842 10843 10844 10846 10848 10849 10848 10849 10850 10851 10851 10851 10851 10850 10850 10850 10849 10849 10848 10847 10846 10845 10844 10843 10843 10843 10843 10841 10840 10838 10836 10834 10832 10831 10829 10828
10664 10668 10675 10682 10683 10688 10695 10698 10701 10703 10707 10716 10721 10719 10720 10721 10725 10733 10740 10746 10754 10761 10769 10772 10777 10789 10793 10787 10787 10792 10795 10801 10805 10805 10806 10807 10809 10812 10813 10815 10818 10820 10824 10827 10830 10833 10834 10834 10835 10836 10837 10838 10839 10841 10842 10842 10842 10844 10844 10845 10846 10846 10846 10846 10846 10845 10844 10844 10844 10843 10842 10841 10839 10839 10838 10839 10838 10836 10835 10833 10831 10830 10827 10825 10824 10822
10653 10659 10668 10670 10670 10680 10686 10687 10692 10694 10697 10709 10711 10707 10709 10714 10720 10728 10734 10741 10746 10754 10765 10768 10770 10783 10790 10784 10780 10788 10792 10792 10794 10795 10798 10800 10800 10804 10806 10807 10811 10814 10817 10820 10822 10825 10827 10829 10830 10831 10832 10832 10833 10834 10835 10836 10837 10838 10839 10840 10841 10841 10841 10841 10841 10841 10840 10839 10839 10838 10837 10836 10835 10834 10834 10834 10833 10831 10830 10828 10826 10824 10822 10820 10818 10817
10638 10646 10650 10652 10659 10670 10671 10672 10680 10680 10685 10699 10700 10698 10706 10713 10718 10723 10731 10736 10739 10751 10760 10762 10766 10775 10784 10783 10777 10781 10785 10782 10783 10786 10790 10793 10794 10796 10799 10801 10804 10807 10810 10813 10815 10818 10821 10824 10825 10826 10826 10826 10827 10828 10829 10831 10831 10832 10833 10835 10836 10836 10836 10836 10835 10836 10835 10834 10833 10832 10831 10830 10829 10829 10829 10828 10827 10825 10824 10823 10821 10819 10816 10814 10812 10810
10629 10632 10635 10643 10652 10658 10661 10665 10669 10669 10680 10692 10692 10695 10705 10711 10714 10719 10725 10730 10737 10749 10753 10755 10760 10766 10779 10783 10772 10768 10773 10774 10777 10780 10782 10786 10788 10790 10793 10795 10798 10801 10804 10807 10810 10812 10814 10817 10819 10820 10820 10820 10821 10822 10823 10825 10826 10827 10828 10829 10830 10830 10830 10830 10830 10830 10830 10829 10828 10825 10825 10825 10824 10824 10824 10822 10821 10820 10818 10818 10816 10813 10810 10808 10805 10803
10622 10626 10632 10640 10645 10650 10657 10660 10660 10666 10679 10687 10689 10696 10704 10708 10711 10716 10721 10727 10735 10743 10746 10749 10751 10756 10772 10777 10764 10757 10764 10770 10773 10773 10774 10778 10782 10785 10787 10789 10792 10795 10798 10801 10803 10804 10806 10809 10811 10813 10813 10813 10815 10815 10816 10819 10821 10822 10823 10824 10824 10824 10824 10824 10824 10824 10823 10823 10822 10819 10819 10819 10818 10818 10817 10816 10816 10814 10812 10812 10811 10808 10804 10802 10799 10797
10620 10624 10629 10635 10639 10648 10655 10654 10658 10671 10682 10688 10692 10697 10701 10705 10709 10713 10717 10723 10729 10733 10738 10740 10739 10748 10763 10769 10763 10756 10756 10763 10766 10766 10768 10771 10775 10778 10781 10784 10786 10788 10792 10793 10795 10797 10799 10801 10803 10805 10806 10807 10808 10808 10810 10813 10814 10815 10816 10817 10817 10817 10817 10818 10817 10817 10817 10817 10816 10814 10813 10812 10811 10811 10810 10810 10809 10807 10806 10805 10805 10802 10799 10796 10794 10791
10614 10619 10629 10637 10643 10652 10655 10655 10662 10673 10678 10680 10683 10685 10688 10695 10700 10703 10707 10713 10717 10721 10727 10729 10732 10745 10757 10762 10762 10754 10749 10755 10758 10759 10762 10764 10767 10770 10774 10778 10780 10782 10783 10785 10787 10789 10792 10794 10795 10797 10799 10801 10802 10802 10803 10805 10806 10808 10809 10810 10810 10810 10810 10811 10810 10810 10810 10810 10809 10808 10807 10806 10805 10805 10804 10804 10802 10800 10800 10799 10798 10796 10793 10790 10788 10785
10602 10612 10627 10636 10642 10650 10650 10651 10659 10665 10667 10670 10673 10674 10679 10687 10692 10694 10699 10705 10709 10713 10720 10726 10734 10744 10749 10753 10755 10750 10748 10749 10748 10751 10753 10754 10759 10763 10767 10770 10772 10774 10776 10777 10780 10782 10784 10787 10788 10790 10792 10794 10796 10796 10797 10797 10798 10800 10801 10802 10803 10802 10803 10803 10803 10803 10802 10802 10802 10802 10801 10800 10800 10799 10798 10797 10795 10794 10794 10793 10792 10789 10786 10784 10782 10778
10598 10607 10620 10624 10629 10636 10636 10642 10652 10656 10657 10661 10665 10671 10678 10684 10686 10689 10694 10699 10701 10706 10715 10723 10731 10736 10739 10745 10748 10745 10744 10741 10739 10742 10743 10745 10752 10756 10760 10762 10763 10767 10769 10772 10774 10775 10777 10779 10781 10783 10785 10787 10788 10789 10790 10791 10791 10792 10793 10794 10794 10794 10795 10795 10794 10795 10795 10795 10795 10795 10795 10794 10793 10792 10792 10791 10788 10787 10787 10787 10785 10781 10779 10777 10775 10772
10598 10607 10615 10618 10622 10627 10628 10635 10641 10640 10642 10649 10657 10667 10671 10671 10674 10678 10683 10688 10693 10701 10711 10719 10725 10729 10732 10740 10741 10734 10733 10734 10734 10735 10735 10737 10742 10746 10751 10755 10756 10759 10762 10765 10767 10767 10770 10771 10773 10775 10777 10779 10780 10781 10782 10783 10784 10785 10784 10785 10785 10786 10787 10786 10787 10787 10787 10787 10787 10787 10787 10786 10785 10785 10785 10784 10782 10780 10780 10779 10777 10773 10771 10770 10767 10764
10590 10597 10602 10607 10613 10617 10620 10625 10627 10628 10635 10645 10654 10661 10660 10660 10667 10672 10674 10683 10691 10698 10707 10712 10717 10722 10727 10733 10731 10724 10725 10728 10727 10728 10730 10731 10733 10737 10742 10746 10750 10753 10755 10758 10759 10760 10763 10764 10765 10767 10768 10771 10772 10773 10774 10775 10776 10777 10776 10777 10777 10777 10777 10778 10779 10779 10778 10779 10779 10779 10778 10777 10777 10777 10777 10776 10774 10773 10772 10771 10768 10765 10763 10762 10759 10756
10577 10580 10586 10595 10601 10602 10605 10610 10616 10625 10635 10643 10649 10654 10655 10657 10663 10667 10670 10679 10685 10690 10699 10704 10708 10716 10721 10723 10720 10717 10719 10719 10718 10722 10725 10726 10727 10729 10732 10736 10741 10746 10748 10750 10752 10753 10755 10756 10758 10759 10760 10762 10763 10765 10767 10767 10768 10769 10768 10769 10769 10769 10769 10769 10770 10770 10769 10770 10771 10771 10770 10769 10768 10768 10768 10768 10766 10765 10764 10762 10759 10756 10755 10753 10751 10747
10564 10569 10578 10586 10588 10589 10595 10603 10614 10623 10629 10635 10641 10647 10650 10652 10657 10662 10665 10671 10676 10682 10688 10692 10699 10710 10713 10713 10711 10710 10711 10712 10712 10715 10717 10720 10722 10722 10724 10728 10731 10735 10739 10742 10745 10747 10748 10748 10750 10752 10753 10754 10755 10757 10758 10759 10760 10760 10761 10762 10761 10761 10761 10761 10761 10761 10760 10761 10762 10762 10761 10760 10759 10759 10759 10759 10758 10757 10756 10753 10751 10748 10746 10745 10742 10738
10556 10565 10573 10578 10580 10585 10593 10602 10608 10612 10617 10624 10629 10635 10638 10638 10641 10646 10650 10656 10659 10664 10671 10676 10689 10704 10707 10707 10706 10702 10703 10706 10707 10709 10710 10712 10715 10716 10718 10720 10721 10724 10728 10732 10736 10739 10741 10742 10742 10743 10745 10746 10748 10749 10750 10750 10751 10751 10753 10754 10754 10754 10753 10753 10753 10753 10752 10752 10753 10753 10752 10751 10751 10751 10750 10750 10750 10749 10747 10745 10742 10740 10738 10736 10733 10730
10552 10562 10566 10569 10575 10581 10588 10594 10597 10602 10610 10613 10616 10624 10628 10627 10631 10636 10642 10646 10647 10655 10665 10670 10685 10702 10704 10703 10700 10692 10694 10701 10701 10702 10702 10703 10706 10710 10711 10713 10713 10715 10718 10722 10725 10729 10733 10735 10736 10736 10736 10737 10740 10741 10742 10743 10743 10743 10744 10745 10745 10746 10746 10745 10745 10744 10744 10744 10745 10744 10744 10743 10742 10742 10741 10741 10740 10739 10738 10736 10733 10732 10730 10727 10724 10721
10543 10549 10552 10557 10564 10570 10576 10582 10586 10590 10596 10600 10608 10620 10623 10624 10629 10630 10633 10638 10642 10652 10660 10663 10679 10698 10700 10697 10690 10681 10686 10694 10694 10694 10693 10693 10697 10701 10704 10706 10706 10707 10710 10713 10715 10717 10722 10726 10728 10730 10729 10729 10731 10732 10733 10734 10734 10735 10735 10735 10736 10736 10737 10737 10736 10736 10735 10735 10736 10735 10735 10734 10733 10732 10732 10731 10730 10730 10729 10727 10724 10722 10720 10718 10715 10711
10533 10535 10540 10546 10551 10556 10562 10568 10574 10581 10591 10603 10613 10617 10618 10621 10620 10618 10625 10631 10636 10646 10652 10655 10675 10694 10692 10686 10678 10674 10681 10684 10681 10684 10685 10684 10688 10692 10695 10699 10699 10700 10702 10704 10706 10708 10710 10714 10717 10720 10722 10723 10723 10724 10724 10725 10726 10726 10727 10727 10727 10727 10727 10728 10727 10727 10727 10726 10727 10726 10725 10725 10724 10723 10722 10721 10720 10720 10719 10717 10715 10712 10711 10709 10706 10703
10520 10526 10534 10541 10545 10554 10564 10572 10582 10592 10602 10608 10609 10608 10611 10613 10611 10614 10621 10622 10630 10644 10646 10649 10668 10681 10678 10674 10670 10669 10675 10672 10668 10674 10677 10677 10681 10684 10686 10690 10691 10693 10695 10696 10698 10699 10700 10703 10705 10709 10712 10714 10716 10717 10717 10718 10718 10718 10718 10718 10718 10718 10718 10718 10718 10718 10717 10717 10717 10716 10716 10715 10714 10713 10712 10711 10710 10709 10708 10707 10705 10702 10701 10698 10696 10694
10507 10515 10523 10531 10540 10552 10562 10571 10580 10586 10588 10590 10591 10594 10599 10601 10602 10607 10607 10610 10627 10637 10631 10637 10654 10661 10663 10667 10665 10663 10664 10660 10658 10665 10669 10670 10673 10676 10678 10681 10683 10685 10687 10688 10690 10691 10693 10695 10696 10698 10701 10703 10707 10709 10710 10711 10710 10710 10710 10709 10710 10710 10710 10709 10709 10708 10708 10707 10707 10706 10705 10705 10705 10704 10703 10702 10701 10699 10698 10696 10695 10692 10690 10688 10686 10685
10498 10506 10517 10526 10532 10538 10546 10555 10560 10561 10561 10565 10569 10572 10577 10579 10580 10582 10585 10597 10612 10611 10613 10629 10640 10645 10656 10660 10655 10655 10656 10653 10653 10658 10661 10663 10665 10668 10671 10673 10675 10677 10679 10680 10682 10684 10686 10687 10688 10690 10691 10692 10695 10697 10700 10701 10702 10702 10702 10701 10700 10700 10700 10700 10700 10699 10698 10697 10697 10696 10695 10695 10695 10694 10693 10692 10691 10689 10688 10686 10684 10683 10680 10678 10676 10674
10488 10499 10513 10519 10522 10529 10538 10544 10547 10547 10547 10550 10551 10554 10558 10558 10559 10563 10574 10591 10600 10599 10614 10631 10629 10636 10652 10648 10641 10648 10652 10649 10648 10650 10652 10654 10655 10659 10662 10664 10667 10669 10670 10672 10674 10675 10677 10678 10680 10681 10682 10683 10684 10686 10688 10689 10690 10691 10692 10691 10691 10690 10689 10689 10689 10688 10688 10688 10687 10686 10686 10686 10685 10684 10683 10682 10681 10679 10678 10676 10674 10673 10670 10668 10666 10663
10478 10488 10499 10506 10513 10521 10527 10532 10536 10537 10537 10540 10544 10549 10553 10553 10556 10565 10580 10596 10598 10600 10618 10627 10621 10631 10643 10635 10630 10638 10642 10644 10644 10641 10641 10642 10644 10648 10653 10655 10658 10661 10664 10665 10665 10666 10668 10669 10670 10671 10672 10673 10674 10674 10675 10675 10677 10678 10678 10679 10680 10679 10679 10679 10678 10677 10677 10677 10676 10676 10676 10676 10675 10674 10673 10672 10671 10669 10667 10666 10664 10662 10660 10658 10655 10653
10472 10477 10487 10499 10504 10507 10514 10522 10525 10526 10528 10533 10537 10540 10543 10546 10555 10570 10588 10598 10594 10599 10616 10617 10611 10623 10632 10619 10614 10620 10627 10637 10639 10631 10629 10632 10635 10641 10645 10649 10651 10653 10655 10656 10655 10657 10659 10660 10661 10661 10661 10661 10662 10662 10663 10662 10663 10664 10664 10666 10667 10668 10668 10668 10668 10667 10667 10667 10666 10665 10665 10665 10663 10663 10662 10661 10660 10658 10656 10655 10653 10651 10649 10647 10644 10642
10469 10471 10480 10489 10492 10497 10507 10513 10515 10519 10522 10522 10525 10532 10540 10551 10565 10579 10589 10589 10586 10594 10604 10599 10601 10617 10616 10599 10597 10608 10619 10628 10630 10627 10626 10628 10631 10634 10637 10641 10643 10643 10644 10645 10645 10648 10649 10650 10651 10651 10651 10651 10652 10652 10653 10653 10653 10652 10652 10654 10655 10656 10656 10657 10657 10657 10657 10656 10655 10655 10654 10654 10653 10652 10651 10649 10648 10646 10645 10643 10641 10639 10636 10634 10632 10630
10464 10467 10473 10479 10483 10491 10499 10502 10508 10512 10509 10512 10527 10542 10551 10561 10569 10573 10576 10578 10580 10585 10586 10588 10597 10603 10594 10586 10592 10604 10613 10619 10622 10624 10626 10624 10624 10626 10629 10631 10631 10631 10633 10634 10635 10637 10637 10637 10639 10641 10643 10644 10645 10646 10646 10645 10644 10643 10643 10643 10643 10643 10643 10643 10644 10644 10645 10645 10644 10644 10643 10642 10642 10641 10640 10639 10637 10635 10633 10632 10630 10627 10624 10622 10620 10618
10459 10462 10467 10469 10471 10477 10486 10493 10497 10494 10498 10519 10539 10546 10548 10552 10555 10559 10565 10570 10570 10568 10571 10580 10587 10585 10583 10588 10592 10595 10603 10609 10609 10612 10616 10617 10617 10618 10620 10619 10618 10618 10621 10622 10624 10625 10626 10628 10630 10632 10635 10635 10636 10637 10637 10637 10635 10633 10633 10633 10631 10631 10630 10630 10630 10630 10631 10631 10631 10631 10631 10631 10630 10629 10628 10628 10626 10624 10622 10620 10618 10615 10613 10611 10608 10605
10450 10454 10458 10459 10459 10464 10472 10476 10477 10485 10507 10529 10535 10532 10534 10537 10540 10546 10553 10557 10557 10560 10567 10575 10579 10580 10580 10582 10581 10583 10590 10592 10593 10600 10608 10609 10608 10606 10606 10607 10607 10609 10611 10613 10615 10616 10616 10618 10619 10621 10624 10624 10624 10626 10627 10627 10626 10624 10623 10622 10620 10620 10619 10618 10618 10617 10617 10617 10617 10618 10618 10618 10618 10617 10616 10615 10614 10612 10610 10607 10605 10603 10601 10599 10597 10594
10441 10444 10447 10448 10450 10454 10456 10459 10471 10494 10511 10514 10514 10519 10524 10525 10530 10538 10546 10551 10552 10555 10559 10564 10569 10569 10564 10564 10568 10572 10576 10578 10584 10595 10599 10595 10591 10591 10594 10598 10599 10601 10604 10605 10606 10607 10607 10607 10607 10608 10610 10612 10613 10613 10614 10615 10616 10615 10613 10612 10610 10609 10608 10608 10607 10605 10604 10605 10604 10604 10604 10603 10603 10602 10601 10600 10600 10599 10597 10595 10593 10591 10588 10586 10584 10582
10432 10433 10435 10438 10442 10447 10449 10456 10473 10486 10488 10490 10503 10515 10515 10516 10525 10532 10537 10540 10539 10539 10545 10552 10556 10554 10551 10554 10559 10562 10566 10569 10578 10590 10587 10573 10572 10580 10588 10593 10593 10591 10594 10596 10597 10597 10596 10595 10595 10596 10597 10599 10601 10601 10600 10601 10602 10603 10602 10601 10600 10599 10598 10597 10595 10593 10593 10593 10593 10592 10591 10590 10588 10587 10586 10585 10585 10584 10583 10582 10580 10579 10576 10574 10572 10569
10421 10423 10428 10432 10436 10440 10443 10450 10457 10461 10469 10485 10501 10508 10508 10511 10518 10519 10521 10529 10533 10534 10539 10544 10547 10545 10544 10547 10548 10550 10555 10561 10575 10585 10570 10552 10559 10575 10582 10586 10586 10583 10583 10584 10585 10585 10584 10582 10583 10583 10584 10586 10588 10588 10588 10587 10588 10588 10588 10588 10588 10588 10587 10585 10583 10581 10581 10581 10580 10579 10578 10576 10575 10573 10572 10571 10570 10569 10568 10567 10566 10564 10562 10561 10559 10556
10412 10416 10420 10422 10425 10429 10434 10440 10446 10455 10472 10487 10494 10497 10501 10504 10507 10505 10509 10524 10533 10529 10529 10535 10538 10536 10535 10537 10537 10539 10545 10555 10568 10567 10550 10543 10559 10570 10571 10574 10576 10575 10574 10572 10571 10570 10569 10568 10569 10569 10570 10572 10572 10573 10573 10573 10573 10573 10574 10574 10574 10574 10573 10572 10570 10570 10569 10568 10566 10564 10563 10562 10561 10560 10559 10557 10555 10554 10554 10552 10550 10549 10547 10546 10544 10542
10402 10405 10407 10409 10414 10422 10428 10435 10445 10457 10471 10479 10483 10489 10491 10492 10492 10490 10499 10521 10529 10520 10518 10526 10527 10525 10525 10526 10526 10528 10536 10546 10553 10548 10542 10548 10557 10557 10557 10560 10561 10561 10562 10561 10558 10556 10554 10553 10553 10553 10554 10556 10556 10556 10556 10556 10556 10557 10558 10559 10559 10559 10558 10557 10557 10556 10554 10553 10551 10549 10548 10547 10547 10547 10546 10544 10542 10540 10539 10537 10535 10534 10532 10531 10529 10527
10396 10399 10403 10407 10415 10422 10427 10436 10447 10457 10466 10472 10476 10480 10481 10481 10482 10485 10498 10514 10516 10509 10510 10513 10512 10513 10514 10513 10515 10522 10529 10536 10540 10540 10540 10545 10547 10545 10545 10546 10545 10545 10547 10545 10545 10544 10541 10540 10540 10539 10539 10539 10540 10540 10539 10539 10539 10539 10540 10541 10541 10541 10541 10540 10540 10539 10537 10536 10535 10534 10533 10532 10532 10532 10531 10530 10528 10527 10525 10522 10520 10519 10517 10516 10514 10512
10392 10398 10404 10412 10420 10426 10431 10438 10445 10452 10461 10468 10470 10473 10474 10475 10478 10485 10492 10497 10498 10499 10500 10496 10492 10495 10500 10504 10511 10519 10523 10527 10530 10532 10533 10535 10536 10535 10532 10531 10530 10530 10529 10529 10530 10529 10528 10527 10526 10524 10524 10524 10523 10523 10523 10523 10523 10522 10523 10523 10523 10522 10522 10522 10522 10522 10521 10520 10519 10518 10517 10517 10516 10516 10515 10514 10513 10512 10510 10508 10506 10504 10502 10501 10499 10497
10394 10399 10406 10415 10421 10425 10428 10432 10439 10451 10461 10463 10463 10467 10470 10471 10473 10475 10477 10478 10480 10481 10478 10476 10477 10482 10491 10502 10509 10512 10515 10517 10519 10522 10524 10525 10524 10521 10517 10515 10514 10513 10514 10514 10514 10514 10514 10513 10511 10510 10509 10508 10508 10508 10507 10507 10507 10506 10506 10506 10506 10506 10506 10506 10506 10506 10505 10505 10504 10503 10502 10501 10500 10500 10499 10499 10498 10497 10495 10493 10491 10490 10488 10487 10485 10484
10383 10390 10400 10408 10413 10416 10421 10427 10438 10451 10456 10453 10456 10462 10464 10463 10462 10460 10458 10459 10459 10459 10463 10470 10477 10480 10486 10494 10498 10500 10505 10506 10508 10513 10515 10512 10509 10506 10502 10499 10497 10497 10498 10499 10498 10498 10498 10498 10497 10496 10495 10494 10494 10493 10493 10492 10492 10491 10491 10491 10491 10491 10491 10491 10491 10491 10490 10489 10489 10488 10487 10486 10486 10485 10484 10483 10483 10482 10481 10479 10477 10476 10475 10473 10472 10470
10380 10389 10396 10402 10406 10411 10417 10424 10433 10442 10444 10445 10450 10453 10452 10450 10449 10446 10443 10442 10445 10451 10458 10464 10470 10475 10478 10482 10487 10491 10495 10497 10500 10503 10501 10497 10494 10490 10487 10486 10484 10483 10482 10482 10482 10483 10482 10481 10482 10482 10481 10481 10480 10479 10479 10478 10478 10477 10477 10477 10477 10476 10476 10475 10475 10476 10475 10475 10474 10474 10473 10472 10471 10471 10470 10469 10469 10468 10467 10466 10464 10463 10462 10460 10459 10458
10380 10385 10390 10397 10401 10405 10410 10418 10426 10433 10437 10439 10441 10441 10439 10438 10436 10433 10432 10435 10439 10446 10450 10453 10459 10464 10467 10471 10477 10483 10486 10489 10490 10489 10486 10483 10479 10476 10475 10474 10472 10471 10469 10468 10467 10467 10467 10467 10467 10466 10467 10467 10466 10465 10465 10464 10464 10464 10463 10463 10462 10462 10462 10461 10461 10461 10461 10461 10460 10460 10459 10459 10458 10457 10457 10456 10456 10455 10454 10453 10452 10451 10449 10448 10447 10445
10373 10377 10383 10389 10393 10399 10408 10417 10422 10427 10430 10431 10432 10431 10429 10427 10427 10428 10429 10430 10433 10436 10440 10444 10449 10453 10457 10462 10467 10471 10473 10475 10476 10475 10473 10470 10468 10466 10464 10463 10461 10461 10459 10456 10455 10455 10455 10454 10454 10453 10453 10453 10452 10453 10452 10451 10451 10450 10449 10449 10449 10448 10448 10448 10448 10448 10448 10448 10447 10447 10447 10446 10445 10445 10445 10444 10444 10443 10442 10441 10440 10439 10437 10435 10434 10433
10370 10373 10378 10384 10389 10397 10406 10411 10413 10417 10421 10423 10425 10424 10419 10419 10424 10424 10421 10420 10423 10427 10431 10435 10440 10445 10449 10453 10455 10457 10458 10460 10462 10464 10462 10459 10456 10454 10453 10452 10452 10451 10449 10447 10446 10444 10443 10443 10443 10442 10442 10441 10441 10441 10440 10440 10440 10438 10438 10438 10437 10436 10436 10436 10435 10435 10435 10435 10435 10434 10434 10434 10433 10433 10432 10432 10431 10430 10430 10429 10428 10427 10425 10423 10422 10421
10358 10362 10369 10377 10382 10389 10398 10403 10406 10410 10415 10417 10419 10418 10413 10411 10412 10410 10408 10412 10417 10420 10423 10427 10431 10435 10439 10442 10444 10446 10446 10448 10451 10453 10452 10449 10447 10445 10443 10442 10441 10440 10439 10439 10437 10435 10434 10434 10433 10433 10432 10432 10431 10431 10430 10430 10429 10428 10428 10427 10426 10425 10425 10424 10424 10423 10423 10423 10422 10422 10422 10421 10421 10421 10420 10420 10419 10418 10418 10417 10416 10415 10413 10411 10410 10409
10348 10356 10363 10368 10375 10387 10398 10403 10403 10405 10409 10411 10410 10408 10402 10395 10393 10395 10401 10406 10409 10411 10414 10418 10422 10426 10429 10432 10435 10435 10435 10436 10440 10442 10442 10440 10438 10436 10435 10433 10431 10430 10429 10428 10428 10427 10426 10425 10424 10424 10423 10422 10422 10421 10420 10419 10419 10418 10417 10416 10416 10415 10414 10413 10413 10412 10412 10412 10411 10410 10410 10410 10409 10409 10408 10408 10407 10406 10406 10405 10404 10403 10401 10399 10398 10397
10350 10357 10359 10366 10379 10389 10393 10392 10391 10393 10395 10394 10392 10390 10384 10380 10381 10388 10394 10397 10398 10401 10406 10411 10415 10418 10421 10423 10424 10424 10424 10425 10428 10431 10432 10430 10429 10428 10426 10424 10422 10421 10420 10419 10419 10418 10417 10417 10417 10415 10414 10414 10413 10412 10411 10410 10409 10408 10407 10406 10405 10405 10404 10404 10403 10402 10402 10401 10400 10400 10399 10398 10398 10397 10397 10396 10395 10394 10393 10393 10391 10390 10389 10387 10385 10384